RH
84 59 93 91 92 96 96 84 95 87 79 81 84 83 79 83 76 65 77 82 89 84 66 61 87 100 100 87 82 88 72 99 80 59 53 52 50 56 67 69 64 68 67 65 62 60 60
67 86 91 98 97 98 94 96 96 100 85 82 86 83 84 76 69 62 72 79 91 86 62 68 98 99 95 88 97 100 94 86 56 56 60 54 55 58 71 73 69 74 75 72 64 64 66
72 96 99 94 99 98 97 99 91 100 88 81 83 75 74 83 69 64 79 88 92 86 51 58 91 95 100 95 98 99 85 72 66 57 61 63 63 58 64 71 72 75 84 78 68 68 69
96 99 99 98 98 96 96 98 90 97 85 82 80 89 94 90 81 68 93 88 82 68 45 47 74 98 100 90 100 84 89 63 70 67 62 67 66 66 69 68 66 84 75 79 52 70 60
95 99 99 99 92 96 98 99 98 97 82 71 80 93 94 89 79 80 89 82 67 58 79 55 94 95 100 97 87 88 78 69 69 70 64 68 67 64 64 73 77 79 91 90 79 60 65
93 99 99 98 99 99 100 97 95 86 80 82 87 86 95 95 92 87 85 97 84 72 95 77 100 89 100 100 96 76 67 66 73 70 71 67 66 73 70 88 83 83 90 81 89 70 66
89 97 98 92 64 95 98 100 98 92 80 75 78 80 87 89 91 84 92 99 90 88 97 99 94 97 99 98 80 71 70 73 79 80 92 82 89 96 81 76 71 74 69 70 64 64 75
85 99 99 83 47 57 66 94 87 75 75 77 81 87 90 78 89 89 89 95 95 96 99 100 100 99 100 97 96 73 73 72 82 90 89 86 91 74 71 75 83 82 84 83 68 64 77
76 91 97 81 47 48 54 63 72 65 65 76 76 78 78 92 98 92 97 97 98 98 98 100 99 98 96 90 89 76 69 73 74 76 82 82 62 68 76 84 95 92 95 84 74 61 70
40 89 99 63 48 42 43 43 55 62 65 61 62 84 74 72 77 96 97 96 97 91 98 100 97 96 84 65 76 67 66 67 71 70 72 75 64 66 73 84 82 97 71 70 63 77 95
59 67 96 78 53 44 39 40 41 44 56 58 65 77 78 69 75 88 84 92 87 86 90 94 96 90 75 68 66 65 62 64 75 68 69 67 66 77 87 81 76 83 72 89 92 96 99
56 58 91 96 57 46 38 36 40 49 44 50 58 64 74 85 80 87 76 84 86 79 96 94 89 86 74 68 75 73 65 63 70 74 75 74 62 68 72 67 74 72 90 87 94 98 99
70 68 60 98 85 63 42 37 36 42 37 41 52 56 60 68 77 83 81 77 84 92 94 90 92 88 72 77 74 71 76 78 78 84 88 79 78 68 68 85 72 88 96 94 88 98 93
67 65 61 80 95 93 73 42 34 31 33 38 48 60 62 64 62 65 71 75 88 88 85 80 84 77 80 72 67 68 74 77 73 78 92 88 81 80 82 79 80 88 96 98 98 98 94
51 62 62 61 82 88 66 49 36 27 25 28 35 53 55 58 59 59 62 94 99 85 82 85 84 75 78 73 69 70 72 74 65 85 87 76 81 72 81 73 77 91 100 94 100 94 98
17 65 68 63 66 77 65 48 33 27 21 23 32 45 48 50 52 53 81 91 96 84 80 75 76 59 70 64 63 72 72 70 81 74 79 82 95 71 78 79 81 90 90 100 100 97 96
15 60 67 57 59 68 61 50 36 25 31 28 34 44 42 42 47 57 96 94 87 77 76 84 73 53 59 79 80 90 92 81 76 82 85 86 96 80 87 94 94 98 100 100 99 97 96
26 32 65 66 52 49 51 41 34 34 33 37 39 81 46 43 66 88 98 89 82 77 73 72 75 54 52 93 96 95 96 86 74 77 87 83 89 96 76 63 66 85 94 90 95 98 88
61 16 63 66 53 41 36 37 37 40 38 33 38 47 50 44 89 95 79 73 76 77 77 74 72 68 53 67 75 86 86 64 70 84 85 80 89 95 58 57 59 70 71 68 74 80 91
66 19 46 66 60 45 35 32 37 38 44 40 43 78 50 61 83 84 90 86 79 67 70 69 75 64 64 71 67 71 73 59 69 77 74 69 78 77 88 76 74 80 71 71 78 91 91
70 45 20 61 59 47 36 36 39 47 46 54 55 89 83 95 82 82 79 75 80 83 70 67 68 80 82 74 73 79 74 68 59 59 69 61 75 82 70 66 65 68 72 74 78 72 69
72 64 16 51 56 45 31 37 39 47 50 55 60 73 76 83 80 72 79 79 83 82 77 78 78 82 74 80 80 84 79 72 67 66 62 70 80 74 64 54 64 60 59 64 73 82 87
63 73 23 36 54 47 32 35 41 46 55 59 58 63 58 84 82 76 78 74 76 78 68 71 76 78 70 68 69 68 70 69 72 73 71 71 79 82 67 68 61 55 52 62 64 64 77
60 72 38 25 49 45 34 33 47 49 54 60 61 64 60 78 83 77 75 71 73 72 78 70 69 69 58 62 62 68 74 74 72 68 68 71 76 87 89 65 60 37 53 52 63 60 69
72 64 58 19 50 40 32 34 51 56 59 57 63 60 61 77 80 79 78 70 68 63 73 73 64 62 64 60 66 65 65 52 57 57 60 71 77 76 85 86 47 43 50 60 63 56 61
76 69 65 18 56 42 39 40 54 59 64 62 60 62 61 67 73 64 71 70 76 74 73 62 61 62 65 70 69 67 65 66 63 62 60 70 73 76 86 74 36 26 43 47 42 67 46
75 74 72 22 51 53 48 46 50 56 66 62 62 55 57 63 57 64 71 74 66 78 82 78 67 68 64 79 80 85 76 63 75 70 60 74 77 81 81 89 68 46 46 41 52 36 37
77 76 85 49 26 65 53 56 55 56 60 65 64 58 56 56 52 57 62 65 73 76 82 66 71 70 80 75 82 83 82 75 77 68 62 68 72 84 86 88 72 48 50 50 44 40 50
91 80 86 83 18 56 68 58 60 65 69 69 66 66 69 67 60 57 58 58 63 64 68 76 75 74 73 92 92 88 84 86 75 75 60 73 65 62 72 66 42 45 41 37 39 41 40
Wind_Speed
35 41 31 31 32 34 32 30 29 25 20 16 14 14 14 19 21 17 14 15 12 10 12 6 12 24 25 10 3 6 20 16 9 12 10 7 7 4 4 4 2 1 3 8 8 18 19
39 30 31 30 32 34 35 32 32 28 18 13 13 11 12 16 17 15 14 14 14 12 11 6 8 23 19 8 11 17 17 12 10 10 9 7 6 8 7 3 2 2 8 13 12 15 11
31 28 29 31 32 34 33 32 33 29 15 11 13 15 15 15 12 10 10 10 13 13 8 9 13 17 10 13 14 17 14 9 10 9 14 13 11 5 5 2 4 6 6 7 3 2 4
26 27 28 29 32 34 35 31 29 22 16 13 14 19 16 10 7 4 4 7 10 11 8 11 11 18 6 21 22 17 11 12 10 10 10 8 7 10 5 3 4 4 3 5 2 1 3
26 27 27 29 32 35 36 29 28 21 19 18 19 25 17 11 3 5 4 5 5 6 11 12 18 13 6 19 19 17 13 16 14 11 9 8 6 6 4 3 4 5 2 2 7 2 3
25 26 27 28 30 34 35 33 29 25 21 20 20 22 22 14 13 6 5 9 14 21 18 13 18 14 13 9 23 19 14 14 13 12 10 4 3 3 1 3 1 3 4 5 6 5 2
24 25 24 26 30 29 32 33 32 25 20 18 18 18 17 9 14 11 15 23 14 10 13 4 11 13 19 21 22 15 17 12 13 3 3 3 5 3 6 4 3 3 8 12 13 10 8
24 24 23 25 28 27 27 28 30 29 26 23 20 17 18 18 15 13 12 13 11 13 12 29 31 31 26 16 12 13 13 4 3 3 3 3 1 4 4 3 4 6 8 9 11 4 3
23 23 22 22 26 25 24 24 24 24 23 22 20 18 16 17 17 18 21 20 17 10 6 13 17 14 9 13 8 10 10 5 3 2 2 3 2 5 4 3 4 5 6 6 10 13 7
21 20 20 21 24 25 23 24 24 25 24 20 18 18 8 6 10 12 16 20 7 5 4 8 6 8 9 9 6 10 6 2 1 3 3 3 4 3 3 4 6 4 7 11 12 7 4
22 20 19 19 20 24 24 22 22 22 24 22 19 18 17 12 11 12 9 4 3 3 6 9 6 4 10 9 12 2 8 3 2 1 4 5 2 1 2 4 6 7 2 6 9 13 10
21 19 15 17 17 19 22 23 21 22 21 21 20 19 13 14 12 10 5 1 4 6 6 4 6 4 3 7 3 4 1 1 1 2 1 6 3 2 5 4 6 5 7 8 4 4 3
23 18 17 14 16 18 19 20 20 20 19 18 18 19 19 12 9 3 2 3 5 6 1 3 2 4 2 3 3 2 1 2 1 4 3 5 2 3 4 3 1 2 4 4 5 1 4
24 20 15 14 13 15 17 19 20 19 17 15 14 23 23 17 12 8 6 4 10 5 4 2 1 0 4 2 2 1 1 2 4 1 1 3 6 5 4 5 2 2 1 1 3 2 5
24 22 18 16 14 13 14 17 18 18 16 13 10 20 28 21 14 9 5 8 3 1 1 3 3 3 3 2 2 1 3 2 3 8 4 2 4 2 4 3 3 2 3 1 3 3 3
22 21 20 17 16 14 14 15 16 16 15 14 11 10 27 22 19 15 7 8 4 4 2 2 3 0 2 0 1 1 1 2 1 4 3 1 5 3 0 1 5 5 1 2 1 3 3
22 20 19 19 16 13 13 14 16 17 15 12 12 5 22 16 23 21 6 5 3 4 1 2 1 1 2 2 2 2 2 4 3 2 2 2 0 5 1 5 4 2 2 4 2 1 2
22 19 19 18 18 12 10 13 13 15 15 13 15 4 17 11 11 4 3 2 5 4 2 1 1 2 2 3 1 1 2 3 4 3 2 4 2 4 7 1 2 4 4 3 2 2 1
22 20 17 17 17 16 8 9 11 14 15 9 5 6 21 6 4 3 3 1 2 5 5 5 4 4 3 2 2 3 3 4 7 4 3 3 1 4 4 3 3 1 2 3 1 1 2
21 19 17 16 16 16 12 6 6 11 11 7 2 3 8 16 7 3 3 4 5 5 1 5 4 2 4 5 3 2 5 2 4 5 5 3 2 3 4 5 2 6 7 2 3 1 3
19 18 16 16 15 13 11 6 6 7 9 5 4 2 3 2 5 4 0 2 4 6 7 14 4 5 2 5 6 5 4 5 2 2 2 2 3 1 5 6 3 4 5 2 3 3 2
17 18 17 17 15 10 8 4 4 3 6 6 2 5 5 4 1 3 5 4 3 4 3 4 4 6 5 4 2 4 4 3 2 6 2 2 2 2 4 1 4 4 3 3 3 2 6
15 17 16 15 16 9 8 3 1 3 4 4 4 5 1 1 4 3 1 1 2 2 1 3 1 1 3 2 9 14 12 12 7 3 3 2 2 4 5 6 7 5 4 2 2 2 6
14 16 15 14 14 10 9 6 5 4 5 3 1 2 0 2 1 4 5 3 2 3 2 4 2 3 2 14 10 5 7 10 8 7 4 1 2 2 4 3 2 5 2 2 4 5 8
17 14 13 13 12 11 4 12 9 7 5 4 1 1 2 1 3 3 6 5 4 4 4 5 4 3 8 4 3 4 4 3 1 2 2 2 2 1 1 2 6 2 5 6 6 6 9
19 15 12 11 9 6 4 12 11 8 6 4 1 4 3 2 5 3 5 5 3 3 3 5 4 5 5 2 2 2 3 2 3 8 2 3 3 3 0 0 5 4 2 4 3 5 5
21 16 14 9 8 4 7 11 10 8 7 5 3 5 4 4 4 10 6 5 6 2 2 3 3 2 1 2 1 2 3 2 2 3 3 2 1 3 2 3 8 5 3 4 4 6 4
22 19 16 12 10 10 11 12 10 8 8 6 5 5 4 4 10 10 13 9 7 6 4 2 2 2 2 2 3 3 3 4 2 5 5 6 5 4 3 2 7 7 5 6 4 4 7
22 21 19 16 13 14 16 16 13 11 10 8 6 6 7 8 8 12 15 18 17 10 5 4 2 2 3 3 1 2 3 2 4 4 1 3 6 4 8 6 7 16 12 11 13 14 11
Wind_Direction
353 348 358 352 354 350 348 348 345 340 341 344 320 305 284 286 279 282 269 269 260 262 291 252 210 193 194 170 309 109 141 159 169 155 155 147 131 105 95 91 35 76 321 313 287 291 288
349 359 357 360 357 358 356 352 349 347 337 340 339 323 306 294 290 282 267 263 251 257 276 222 203 180 166 113 154 140 151 157 147 152 139 146 133 108 98 81 71 284 282 284 286 276 274
1 4 4 4 3 0 358 355 352 354 356 358 339 334 308 291 276 278 261 246 244 260 257 220 180 169 152 145 149 152 153 135 143 145 124 115 110 104 107 94 359 323 325 321 304 311 252
8 4 6 7 6 4 1 5 3 11 19 8 0 356 342 277 256 241 253 247 258 267 239 207 220 185 121 145 144 151 138 131 140 126 122 112 115 87 65 68 23 24 32 356 317 157 293
10 7 10 13 11 12 8 16 27 26 28 29 22 23 22 25 132 157 235 253 297 259 176 174 164 143 119 153 146 147 144 132 128 115 94 129 103 81 81 63 16 19 326 333 316 329 277
13 11 15 16 18 22 26 29 31 34 31 37 38 36 45 53 72 113 92 115 115 115 119 152 126 106 142 150 138 135 144 135 126 129 107 87 83 101 82 67 211 355 349 318 282 300 308
18 11 15 21 25 30 32 29 36 36 31 33 23 28 33 58 77 71 125 113 102 75 55 148 153 107 131 124 130 135 137 117 133 102 89 29 72 182 213 203 145 285 285 285 279 264 279
20 11 18 25 30 30 32 36 37 45 43 34 35 50 51 76 72 74 129 92 90 111 71 75 87 101 108 106 111 132 142 104 125 108 123 49 242 218 198 197 228 263 269 271 280 267 217
18 11 14 25 30 32 28 30 35 39 40 39 39 41 58 78 68 74 96 105 97 95 80 41 68 76 74 89 101 153 164 125 121 110 147 157 204 107 161 210 216 229 240 269 274 295 249
15 10 10 31 33 29 28 29 33 28 29 33 36 35 41 77 53 79 84 99 76 47 86 16 47 43 67 120 63 147 141 99 81 184 177 237 249 222 191 233 183 287 235 253 282 317 288
12 5 11 15 35 29 22 25 30 29 25 25 34 30 53 62 108 93 106 107 25 356 70 356 21 53 41 86 127 145 191 34 99 80 91 260 265 269 275 227 169 245 323 267 269 268 285
13 9 7 11 24 27 24 18 22 26 28 30 35 38 40 80 99 102 137 137 332 43 46 10 11 1 47 51 62 104 110 263 6 1 209 243 275 250 215 248 213 280 304 291 242 246 253
9 9 356 14 17 19 21 19 18 21 29 31 39 35 29 26 17 70 336 309 50 62 219 356 16 358 49 62 60 62 67 5 152 57 356 324 234 258 198 279 301 169 279 315 356 295 240
5 9 1 1 9 14 16 18 14 12 17 19 33 34 24 7 343 323 326 43 64 25 61 96 141 121 75 101 55 152 128 316 220 128 143 353 329 188 175 210 251 297 216 267 282 291 293
1 8 8 346 359 4 19 20 16 12 11 14 8 30 33 27 21 27 36 52 89 107 193 106 7 58 19 349 142 183 221 237 219 190 174 301 277 86 196 181 151 100 220 181 272 234 263
360 -0 5 356 343 355 5 27 23 12 1 4 13 31 25 24 40 50 61 81 60 27 31 69 24 64 87 32 106 245 239 182 211 173 187 317 295 217 236 155 238 227 329 230 215 304 298
355 358 0 2 344 350 0 18 33 25 13 14 35 42 16 47 59 53 58 52 5 357 290 193 297 123 98 42 35 22 296 303 166 195 167 15 348 305 19 204 182 184 237 211 285 252 302
351 356 354 355 354 337 14 21 48 47 15 34 46 41 10 48 55 39 50 348 339 321 347 277 245 250 129 173 38 246 299 243 191 164 241 210 252 268 230 194 197 165 209 228 186 192 301
348 349 353 351 350 342 19 45 45 46 27 16 66 35 31 63 82 358 334 359 226 7 356 2 340 32 4 162 333 225 228 280 187 164 223 184 280 316 359 25 12 301 233 241 228 21 224
345 348 346 348 344 342 334 43 43 20 32 28 69 48 38 54 54 100 26 3 -0 16 68 -0 339 26 39 25 15 349 354 347 208 223 262 178 218 177 184 240 301 304 319 266 167 123 152
336 344 342 343 342 338 335 360 42 37 17 29 76 93 106 351 24 26 41 356 9 13 354 21 37 46 326 360 352 10 345 329 192 357 156 154 272 157 254 254 273 266 304 328 139 200 155
325 336 340 337 339 334 329 334 49 40 34 18 56 141 126 116 17 59 349 356 39 323 30 354 52 325 21 89 153 293 4 29 349 323 39 1 280 340 280 263 312 291 310 43 74 96 70
320 325 333 335 335 332 325 268 104 45 20 36 89 136 273 189 123 110 206 270 321 283 165 130 241 330 6 286 283 278 271 267 253 322 308 21 22 26 287 345 332 320 220 191 256 176 148
314 311 325 329 334 320 308 212 176 106 59 53 159 148 36 261 252 175 177 192 239 295 271 269 222 178 256 316 298 279 256 255 250 263 220 299 108 150 250 347 9 238 207 207 204 220 209
299 298 313 320 332 323 301 182 174 144 113 74 147 329 291 212 239 257 198 205 207 252 236 261 273 288 318 337 33 7 346 349 247 224 225 192 128 293 221 237 282 232 203 179 182 262 203
287 287 295 307 318 329 185 178 184 179 176 159 175 323 313 147 235 207 197 209 225 205 313 247 266 297 327 56 72 142 246 233 299 327 136 108 87 133 227 264 241 246 239 183 130 291 218
277 278 276 282 284 259 205 205 203 208 217 228 258 288 255 268 257 193 195 196 181 200 224 271 281 233 337 73 87 176 250 190 245 254 236 301 355 203 224 259 288 248 229 143 116 236 323
271 270 265 264 257 239 222 225 229 229 235 248 281 316 254 270 279 246 228 209 198 191 166 198 47 246 34 115 152 209 201 231 208 228 196 189 164 202 151 229 280 175 116 175 233 311 303
269 263 260 259 249 245 231 231 243 239 243 249 271 293 292 274 281 281 258 247 237 232 226 207 265 235 194 89 230 124 221 186 191 268 102 242 192 186 188 217 215 193 212 231 265 273 300